When you browse on this site, cookies collect data to enhance your experience and personalize the content and advertising you see.
Visit our Privacy Policy to learn more. By continuing to use the site, you agree to this use of cookies and data.
  • In Hungary
  • List of Countries
  • For 7 days
  • Water Temperature
  • Weather Map
  • News
  • Weather Widgets
  • user-avatar
    Login

    Hourly Weather Kanty

    Today, 22 September, Sunday

    Time Temperature Precipitation Wind Pressure Humidity
    00:00 +9°C° 0 mm 2 mps 753 mmHg 96%
    01:00 +9°C° 0 mm 2 mps 753 mmHg 95%
    02:00 +9°C° 0 mm 2 mps 752 mmHg 96%
    03:00 +9°C° 0 mm 2 mps 752 mmHg 96%
    04:00 +8°C° 0 mm 2 mps 752 mmHg 96%
    05:00 +9°C° 0 mm 3 mps 752 mmHg 94%
    06:00 +9°C° 0 mm 3 mps 752 mmHg 92%
    07:00 +10°C° 0 mm 3 mps 751 mmHg 89%
    08:00 +12°C° 0 mm 3 mps 751 mmHg 82%
    09:00 +14°C° 0 mm 3 mps 751 mmHg 74%
    10:00 +17°C° 0 mm 3 mps 751 mmHg 67%
    11:00 +19°C° 0 mm 3 mps 751 mmHg 62%
    12:00 +20°C° 0 mm 3 mps 751 mmHg 56%
    13:00 +21°C° 0 mm 3 mps 750 mmHg 51%
    14:00 +21°C° 0 mm 2 mps 750 mmHg 53%
    15:00 +20°C° 0 mm 2 mps 750 mmHg 56%
    16:00 +20°C° 0 mm 2 mps 750 mmHg 58%
    17:00 +18°C° 0 mm 2 mps 750 mmHg 68%
    18:00 +15°C° 0 mm 2 mps 750 mmHg 77%
    19:00 +13°C° 0 mm 2 mps 750 mmHg 87%
    20:00 +12°C° 0 mm 2 mps 750 mmHg 89%
    21:00 +12°C° 0 mm 2 mps 750 mmHg 90%
    22:00 +10°C° 0 mm 2 mps 750 mmHg 92%
    23:00 +10°C° 0 mm 3 mps 751 mmHg 93%

    Tomorrow, 23 September, Monday

    Time Temperature Precipitation Wind Pressure Humidity
    00:00 +10°C° 0 mm 3 mps 751 mmHg 94%
    01:00 +10°C° 0 mm 4 mps 751 mmHg 94%
    02:00 +10°C° 0 mm 4 mps 751 mmHg 92%
    03:00 +8°C° 0 mm 4 mps 751 mmHg 90%
    04:00 +8°C° 0 mm 4 mps 751 mmHg 88%
    05:00 +8°C° 0 mm 4 mps 752 mmHg 85%
    06:00 +8°C° 0 mm 4 mps 752 mmHg 82%
    07:00 +10°C° 0 mm 4 mps 752 mmHg 79%
    08:00 +11°C° 0 mm 4 mps 752 mmHg 75%
    09:00 +12°C° 0 mm 4 mps 753 mmHg 71%
    10:00 +14°C° 0 mm 4 mps 753 mmHg 66%
    11:00 +14°C° 0 mm 4 mps 753 mmHg 64%
    12:00 +15°C° 0 mm 4 mps 753 mmHg 62%
    13:00 +15°C° 0 mm 4 mps 752 mmHg 60%
    14:00 +15°C° 0 mm 4 mps 752 mmHg 60%
    15:00 +15°C° 0 mm 4 mps 752 mmHg 61%
    16:00 +15°C° 0 mm 4 mps 752 mmHg 62%
    17:00 +13°C° 0 mm 3 mps 752 mmHg 67%
    18:00 +11°C° 0 mm 3 mps 752 mmHg 72%
    19:00 +10°C° 0 mm 3 mps 752 mmHg 77%
    20:00 +9°C° 0 mm 3 mps 752 mmHg 78%
    21:00 +9°C° 0 mm 3 mps 752 mmHg 78%
    22:00 +8°C° 0 mm 3 mps 752 mmHg 78%
    23:00 +8°C° 0 mm 3 mps 752 mmHg 79%

    Day after tomorrow, 24 September, Tuesday

    Time Temperature Precipitation Wind Pressure Humidity
    00:00 +7°C° 0 mm 3 mps 752 mmHg 79%
    01:00 +7°C° 0 mm 3 mps 752 mmHg 80%
    02:00 +7°C° 0 mm 3 mps 751 mmHg 81%
    03:00 +5°C° 0 mm 3 mps 751 mmHg 83%
    04:00 +6°C° 0 mm 2 mps 751 mmHg 84%
    05:00 +7°C° 0 mm 3 mps 751 mmHg 82%
    06:00 +7°C° 0 mm 3 mps 751 mmHg 80%
    07:00 +8°C° 0 mm 3 mps 750 mmHg 78%
    08:00 +10°C° 0 mm 3 mps 750 mmHg 73%
    09:00 +12°C° 0 mm 3 mps 750 mmHg 68%
    10:00 +16°C° 0 mm 3 mps 750 mmHg 63%
    11:00 +17°C° 0 mm 3 mps 750 mmHg 60%
    12:00 +18°C° 0 mm 3 mps 749 mmHg 58%
    13:00 +19°C° 0 mm 3 mps 749 mmHg 55%
    14:00 +19°C° 0 mm 3 mps 748 mmHg 57%
    15:00 +19°C° 0 mm 3 mps 748 mmHg 59%
    16:00 +19°C° 0 mm 3 mps 748 mmHg 61%
    17:00 +17°C° 0 mm 3 mps 747 mmHg 66%
    18:00 +14°C° 0 mm 3 mps 747 mmHg 71%
    19:00 +13°C° 0 mm 3 mps 747 mmHg 77%
    20:00 +13°C° 0.2 mm 4 mps 747 mmHg 76%
    21:00 +12°C° 0.2 mm 4 mps 747 mmHg 76%
    22:00 +12°C° 0.2 mm 4 mps 747 mmHg 75%
    23:00 +12°C° 0.3 mm 4 mps 746 mmHg 76%

    25 September, Wednesday

    Time Temperature Precipitation Wind Pressure Humidity
    00:00 +12°C° 0.3 mm 4 mps 746 mmHg 77%
    01:00 +12°C° 0.3 mm 4 mps 745 mmHg 78%
    02:00 +12°C° 0.1 mm 4 mps 745 mmHg 79%
    03:00 +12°C° 0.1 mm 3 mps 745 mmHg 80%
    04:00 +12°C° 0.1 mm 3 mps 745 mmHg 80%
    05:00 +12°C° 0.1 mm 3 mps 744 mmHg 82%
    06:00 +12°C° 0.1 mm 3 mps 744 mmHg 83%
    07:00 +12°C° 0.1 mm 3 mps 744 mmHg 85%
    08:00 +12°C° 0.3 mm 3 mps 744 mmHg 85%
    09:00 +12°C° 0.3 mm 3 mps 744 mmHg 84%
    10:00 +12°C° 0.3 mm 3 mps 744 mmHg 84%
    11:00 +12°C° 0.3 mm 3 mps 743 mmHg 85%
    12:00 +13°C° 0.3 mm 2 mps 743 mmHg 85%
    13:00 +14°C° 0.3 mm 2 mps 743 mmHg 85%
    14:00 +14°C° 0.2 mm 2 mps 742 mmHg 85%
    15:00 +14°C° 0.2 mm 2 mps 742 mmHg 85%
    16:00 +14°C° 0.2 mm 2 mps 742 mmHg 84%
    17:00 +14°C° 0.1 mm 1 mps 742 mmHg 86%
    18:00 +14°C° 0.1 mm 1 mps 742 mmHg 87%
    19:00 +13°C° 0.1 mm 1 mps 742 mmHg 89%
    20:00 +13°C° 0.1 mm 1 mps 742 mmHg 89%
    21:00 +13°C° 0.1 mm 1 mps 742 mmHg 90%
    22:00 +12°C° 0.1 mm 0 mps 743 mmHg 91%
    23:00 +12°C° 0 mm 0 mps 743 mmHg 92%

    26 September, Thursday

    Time Temperature Precipitation Wind Pressure Humidity
    00:00 +12°C° 0 mm 0 mps 743 mmHg 93%
    01:00 +13°C° 0 mm 1 mps 743 mmHg 93%
    02:00 +12°C° 0.1 mm 1 mps 743 mmHg 94%
    03:00 +12°C° 0.1 mm 1 mps 743 mmHg 95%
    04:00 +12°C° 0.1 mm 1 mps 743 mmHg 96%
    05:00 +12°C° 0.1 mm 1 mps 743 mmHg 96%
    06:00 +12°C° 0.1 mm 1 mps 743 mmHg 96%
    07:00 +12°C° 0.1 mm 1 mps 744 mmHg 96%
    08:00 +13°C° 0 mm 1 mps 744 mmHg 92%
    09:00 +14°C° 0 mm 1 mps 745 mmHg 87%
    10:00 +15°C° 0 mm 1 mps 745 mmHg 83%
    11:00 +16°C° 0.3 mm 2 mps 745 mmHg 81%
    12:00 +16°C° 0.3 mm 2 mps 745 mmHg 79%
    13:00 +17°C° 0.3 mm 2 mps 746 mmHg 77%
    14:00 +16°C° 0.5 mm 2 mps 746 mmHg 81%
    15:00 +15°C° 0.5 mm 2 mps 746 mmHg 84%
    16:00 +15°C° 0.5 mm 2 mps 746 mmHg 88%
    17:00 +14°C° 0.1 mm 2 mps 746 mmHg 90%
    18:00 +13°C° 0.1 mm 2 mps 746 mmHg 93%
    19:00 +12°C° 0.1 mm 2 mps 746 mmHg 95%
    20:00 +10°C° 0.1 mm 2 mps 747 mmHg 95%
    21:00 +10°C° 0.1 mm 2 mps 747 mmHg 96%
    22:00 +10°C° 0.1 mm 2 mps 747 mmHg 96%
    23:00 +9°C° 0 mm 2 mps 747 mmHg 96%

    27 September, Friday

    Time Temperature Precipitation Wind Pressure Humidity
    00:00 +9°C° 0 mm 2 mps 748 mmHg 96%
    01:00 +9°C° 0 mm 2 mps 748 mmHg 95%
    02:00 +9°C° 0 mm 2 mps 748 mmHg 95%
    03:00 +9°C° 0 mm 2 mps 748 mmHg 94%
    04:00 +9°C° 0 mm 2 mps 748 mmHg 93%
    05:00 +8°C° 0 mm 2 mps 748 mmHg 92%
    06:00 +8°C° 0 mm 2 mps 748 mmHg 91%
    07:00 +8°C° 0 mm 2 mps 748 mmHg 91%
    08:00 +9°C° 0 mm 2 mps 749 mmHg 86%
    09:00 +10°C° 0 mm 2 mps 749 mmHg 81%
    10:00 +13°C° 0 mm 2 mps 749 mmHg 76%
    11:00 +14°C° 0 mm 2 mps 749 mmHg 73%
    12:00 +15°C° 0 mm 2 mps 749 mmHg 70%
    13:00 +16°C° 0 mm 2 mps 749 mmHg 67%
    14:00 +16°C° 0 mm 2 mps 748 mmHg 69%
    15:00 +16°C° 0 mm 2 mps 748 mmHg 72%
    16:00 +15°C° 0 mm 2 mps 748 mmHg 74%
    17:00 +14°C° 0 mm 3 mps 748 mmHg 76%
    18:00 +13°C° 0 mm 3 mps 748 mmHg 78%
    19:00 +13°C° 0 mm 4 mps 748 mmHg 81%
    20:00 +13°C° 0.6 mm 4 mps 748 mmHg 85%
    21:00 +13°C° 0.6 mm 4 mps 748 mmHg 88%
    22:00 +12°C° 0.6 mm 4 mps 748 mmHg 92%
    23:00 +13°C° 0.1 mm 4 mps 748 mmHg 93%
    Show more